Camp Douglas, WI

5:53 PM CST on February 19, 2017 (GMT -0600)
Volk

Weather History for KVOK - January, 2013

Change the Weather History Date:

Friday, January 18, 2013

  Actual Average Record
Temperature  
Mean Temperature 27 °F -  
Max Temperature 46 °F 21 °F 41 °F (2015)
Min Temperature 8 °F 9 °F -13 °F (2016)
Degree Days  
Heating Degree Days 38    
Moisture  
Dew Point 18 °F    
Average Humidity 76    
Maximum Humidity 87    
Minimum Humidity 53    
Precipitation  
Precipitation 0.00 in - - ()
Sea Level Pressure  
Sea Level Pressure 30.11 in    
Wind  
Wind Speed 7 mph (SSE)    
Max Wind Speed 14 mph    
Max Gust Speed 25 mph    
Visibility 9 miles    
Events Snow    
Averages and records for this station are not official NWS values.
T = Trace of Precipitation, MM = Missing Value Source: NWS Daily Summary

Daily Weather History Graph

Daily Weather History Graph

Search for Another Location

Airport or City:

Trip Planner

Search our weather history database for the weather conditions in past years. The results will help you decide how hot, cold, wet, or windy it might be!

Date:

Astronomy

Jan. 18, 2013 Rise Set
Actual Time 7:30 AM CST 4:53 PM CST
Civil Twilight 6:58 AM CST 5:24 PM CST
Nautical Twilight 6:23 AM CST 6:00 PM CST
Astronomical Twilight 5:48 AM CST 6:34 PM CST
Moon 10:51 AM CST (1/18) No Moon Set
Length of Visible Light 10h 26m
Length of Day
9h 22m
Waxing Crescent, 47% of the Moon is Illuminated
Jan 18
Waxing Crescent
Jan 18
First Quarter
Jan 26
Full
Feb 3
Last Quarter
Feb 10
New

Hourly Weather History & Observations

Time (CST) Temp. Windchill Dew Point Humidity Pressure Visibility Wind Dir Wind Speed Gust Speed Precip Events Conditions
12:55 AM 8.1 °F - 4.8 °F 87% 30.40 in 10.0 mi Calm Calm - N/A   Overcast
1:55 AM 11.7 °F 3.7 °F 7.7 °F 84% 30.40 in 10.0 mi SSE 4.6 mph - N/A   Overcast
2:55 AM 13.3 °F 7.3 °F 9.1 °F 84% 30.38 in 10.0 mi ESE 3.5 mph - N/A   Overcast
3:00 AM 14.0 °F 6.5 °F 8.6 °F 79% 30.38 in 10.0 mi ESE 4.6 mph - N/A   Overcast
3:42 AM 14.0 °F 6.5 °F 8.6 °F 79% 30.35 in 10.0 mi SE 4.6 mph - N/A   Overcast
3:52 AM 14.0 °F 6.5 °F 8.6 °F 79% 30.35 in 10.0 mi ESE 4.6 mph - N/A Snow Light Snow
3:54 AM 14.0 °F 5.1 °F 8.6 °F 79% 30.35 in 10.0 mi ESE 5.8 mph - N/A Snow Light Snow
3:55 AM 14.4 °F 5.5 °F 9.3 °F 80% 30.35 in 10.0 mi ESE 5.8 mph - 0.00 in Snow Light Snow
3:57 AM 14.0 °F 5.1 °F 8.6 °F 79% 30.34 in 10.0 mi ESE 5.8 mph - N/A Snow Light Snow
3:59 AM 14.0 °F 5.1 °F 8.6 °F 79% 30.34 in 10.0 mi ESE 5.8 mph - N/A Snow Light Snow
4:13 AM 14.0 °F 3.9 °F 10.4 °F 86% 30.32 in 9.0 mi ESE 6.9 mph - N/A Snow Light Snow
4:19 AM 14.0 °F 3.9 °F 10.4 °F 86% 30.32 in 7.0 mi ESE 6.9 mph - N/A Snow Light Snow
4:35 AM 14.0 °F 2.9 °F 10.4 °F 86% 30.30 in 2.5 mi ESE 8.1 mph - N/A Snow Light Snow
4:46 AM 14.0 °F 2.9 °F 10.4 °F 86% 30.30 in 3.0 mi ESE 8.1 mph - N/A Snow Light Snow
4:55 AM 14.4 °F 2.4 °F 10.6 °F 85% 30.30 in 3.0 mi ESE 9.2 mph - 0.00 in Snow Light Snow
5:55 AM 14.9 °F 3.1 °F 11.5 °F 86% 30.26 in 5.0 mi SE 9.2 mph - 0.00 in Snow Light Snow
6:15 AM 15.8 °F 3.4 °F 12.2 °F 86% 30.25 in 9.0 mi ESE 10.4 mph - N/A Snow Light Snow
6:20 AM 15.8 °F 3.4 °F 12.2 °F 86% 30.24 in 10.0 mi SE 10.4 mph - N/A   Overcast
6:55 AM 15.8 °F 4.2 °F 12.2 °F 86% 30.21 in 10.0 mi SE 9.2 mph - N/A   Overcast
7:55 AM 17.6 °F 6.4 °F 14.0 °F 86% 30.15 in 10.0 mi SE 9.2 mph - N/A   Overcast
8:55 AM 21.2 °F 10.9 °F 15.8 °F 80% 30.09 in 10.0 mi SSE 9.2 mph 19.6 mph N/A   Overcast
9:55 AM 28.4 °F 17.5 °F 19.4 °F 69% 30.04 in 10.0 mi South 13.8 mph 23.0 mph N/A   Mostly Cloudy
10:55 AM 33.8 °F 25.3 °F 24.8 °F 70% 29.99 in 10.0 mi South 11.5 mph - N/A   Partly Cloudy
11:55 AM 39.2 °F 31.2 °F 26.6 °F 61% 29.91 in 10.0 mi SSW 13.8 mph 25.3 mph N/A   Mostly Cloudy
12:55 PM 44.6 °F 38.1 °F 30.2 °F 57% 29.86 in 10.0 mi SSW 13.8 mph 24.2 mph N/A   Scattered Clouds
1:55 PM 44.6 °F 38.8 °F 28.4 °F 53% 29.82 in 10.0 mi SW 11.5 mph - N/A   Scattered Clouds
2:55 PM 46.4 °F 41.1 °F 30.2 °F 53% 29.80 in 10.0 mi SW 11.5 mph 24.2 mph N/A   Mostly Cloudy
3:55 PM 44.6 °F 38.8 °F 30.2 °F 57% 29.79 in 10.0 mi SW 11.5 mph 21.9 mph N/A   Mostly Cloudy
4:55 PM 43.3 °F 36.8 °F 30.9 °F 62% 29.78 in 10.0 mi SSW 12.7 mph 16.1 mph N/A   Clear
5:55 PM 43.3 °F 36.8 °F 31.6 °F 63% 29.79 in 10.0 mi SW 12.7 mph - N/A   Clear
6:55 PM 42.4 °F 37.0 °F 32.0 °F 67% 29.80 in 10.0 mi SW 9.2 mph 18.4 mph N/A   Clear
7:55 PM 40.6 °F 33.8 °F 32.0 °F 71% 29.79 in 10.0 mi WSW 11.5 mph - N/A   Clear
8:55 PM 39.0 °F 32.8 °F 31.5 °F 74% 29.79 in 10.0 mi West 9.2 mph - N/A   Clear
9:55 PM 38.3 °F 30.9 °F 31.3 °F 76% 29.80 in 10.0 mi West 11.5 mph - N/A   Clear
10:55 PM 37.4 °F 29.8 °F 30.9 °F 77% 29.80 in 10.0 mi West 11.5 mph - N/A   Clear
11:55 PM 34.3 °F 28.4 °F 29.3 °F 82% 29.80 in 10.0 mi WSW 6.9 mph - N/A   Clear